When you browse on this site, cookies collect data to enhance your experience and personalize the content and advertising you see.
Visit our Privacy Policy to learn more. By continuing to use the site, you agree to this use of cookies and data.
  • In Czech Republic
  • List of Countries
  • For 7 days
  • Water Temperature
  • Weather Map
  • Weather Widgets
  • user-avatar
    Login

    Hourly Weather Yubileynaya

    Today, 25 May, Monday

    Time Temperature Precipitation Wind Pressure Humidity
    00:00 +10°C° 0 mm 1 mps 751 mmHg 62%
    01:00 +9°C° 0 mm 1 mps 751 mmHg 66%
    02:00 +9°C° 0 mm 1 mps 752 mmHg 69%
    03:00 +8°C° 0 mm 1 mps 752 mmHg 73%
    04:00 +10°C° 0 mm 1 mps 752 mmHg 69%
    05:00 +11°C° 0 mm 1 mps 752 mmHg 65%
    06:00 +12°C° 0 mm 1 mps 752 mmHg 61%
    07:00 +14°C° 0 mm 1 mps 751 mmHg 54%
    08:00 +16°C° 0 mm 1 mps 751 mmHg 47%
    09:00 +20°C° 0 mm 1 mps 751 mmHg 40%
    10:00 +20°C° 0 mm 2 mps 750 mmHg 36%
    11:00 +23°C° 0 mm 2 mps 750 mmHg 32%
    12:00 +24°C° 0 mm 2 mps 749 mmHg 29%
    13:00 +25°C° 0 mm 2 mps 749 mmHg 28%
    14:00 +25°C° 0 mm 2 mps 748 mmHg 28%
    15:00 +25°C° 0 mm 2 mps 748 mmHg 28%
    16:00 +25°C° 0 mm 2 mps 747 mmHg 29%
    17:00 +25°C° 0 mm 2 mps 747 mmHg 30%
    18:00 +25°C° 0 mm 2 mps 747 mmHg 32%
    19:00 +23°C° 0 mm 2 mps 747 mmHg 38%
    20:00 +21°C° 0 mm 1 mps 746 mmHg 45%
    21:00 +19°C° 0 mm 1 mps 746 mmHg 51%
    22:00 +16°C° 0 mm 1 mps 745 mmHg 55%
    23:00 +15°C° 0 mm 1 mps 745 mmHg 58%

    Tomorrow, 26 May, Tuesday

    Time Temperature Precipitation Wind Pressure Humidity
    00:00 +14°C° 0 mm 2 mps 745 mmHg 62%
    01:00 +13°C° 0 mm 2 mps 745 mmHg 62%
    02:00 +13°C° 0 mm 2 mps 745 mmHg 62%
    03:00 +12°C° 0 mm 2 mps 744 mmHg 61%
    04:00 +13°C° 0 mm 2 mps 744 mmHg 59%
    05:00 +14°C° 0 mm 2 mps 744 mmHg 57%
    06:00 +16°C° 0 mm 2 mps 744 mmHg 55%
    07:00 +18°C° 0 mm 2 mps 743 mmHg 50%
    08:00 +20°C° 0 mm 2 mps 743 mmHg 45%
    09:00 +23°C° 0 mm 2 mps 743 mmHg 40%
    10:00 +25°C° 0 mm 3 mps 742 mmHg 34%
    11:00 +26°C° 0 mm 3 mps 742 mmHg 29%
    12:00 +28°C° 0 mm 3 mps 741 mmHg 24%
    13:00 +28°C° 0 mm 3 mps 740 mmHg 23%
    14:00 +29°C° 0 mm 3 mps 740 mmHg 22%
    15:00 +29°C° 0 mm 3 mps 739 mmHg 21%
    16:00 +29°C° 0 mm 3 mps 739 mmHg 23%
    17:00 +29°C° 0 mm 2 mps 738 mmHg 24%
    18:00 +28°C° 0 mm 2 mps 738 mmHg 26%
    19:00 +26°C° 0 mm 2 mps 738 mmHg 35%
    20:00 +23°C° 0 mm 2 mps 737 mmHg 43%
    21:00 +20°C° 0 mm 2 mps 737 mmHg 52%
    22:00 +19°C° 0 mm 2 mps 737 mmHg 56%
    23:00 +18°C° 0 mm 2 mps 737 mmHg 61%

    Day after tomorrow, 27 May, Wednesday

    Time Temperature Precipitation Wind Pressure Humidity
    00:00 +16°C° 0 mm 2 mps 737 mmHg 65%
    01:00 +16°C° 0 mm 2 mps 736 mmHg 68%
    02:00 +15°C° 0 mm 2 mps 736 mmHg 71%
    03:00 +15°C° 0 mm 2 mps 736 mmHg 73%
    04:00 +16°C° 0 mm 2 mps 736 mmHg 70%
    05:00 +17°C° 0 mm 2 mps 735 mmHg 66%
    06:00 +18°C° 0 mm 2 mps 735 mmHg 63%
    07:00 +20°C° 0 mm 2 mps 735 mmHg 56%
    08:00 +23°C° 0 mm 2 mps 734 mmHg 49%
    09:00 +25°C° 0 mm 2 mps 734 mmHg 43%
    10:00 +27°C° 0 mm 3 mps 734 mmHg 38%
    11:00 +28°C° 0 mm 3 mps 733 mmHg 34%
    12:00 +29°C° 0 mm 4 mps 733 mmHg 30%
    13:00 +29°C° 0 mm 3 mps 733 mmHg 31%
    14:00 +28°C° 0 mm 3 mps 732 mmHg 32%
    15:00 +28°C° 0 mm 2 mps 732 mmHg 33%
    16:00 +28°C° 0 mm 2 mps 731 mmHg 34%
    17:00 +28°C° 0 mm 2 mps 731 mmHg 35%
    18:00 +28°C° 0 mm 1 mps 731 mmHg 36%
    19:00 +26°C° 0 mm 2 mps 730 mmHg 41%
    20:00 +24°C° 0 mm 2 mps 730 mmHg 46%
    21:00 +21°C° 0 mm 3 mps 729 mmHg 51%
    22:00 +20°C° 0 mm 3 mps 729 mmHg 48%
    23:00 +20°C° 0 mm 3 mps 729 mmHg 46%

    28 May, Thursday

    Time Temperature Precipitation Wind Pressure Humidity
    00:00 +20°C° 0 mm 4 mps 729 mmHg 43%
    01:00 +19°C° 0 mm 4 mps 729 mmHg 49%
    02:00 +18°C° 0 mm 4 mps 729 mmHg 55%
    03:00 +17°C° 0 mm 4 mps 730 mmHg 61%
    04:00 +17°C° 0 mm 4 mps 730 mmHg 64%
    05:00 +15°C° 0 mm 4 mps 731 mmHg 68%
    06:00 +14°C° 0 mm 3 mps 731 mmHg 72%
    07:00 +14°C° 0.2 mm 3 mps 732 mmHg 74%
    08:00 +13°C° 0.2 mm 3 mps 732 mmHg 76%
    09:00 +14°C° 0.2 mm 2 mps 732 mmHg 79%
    10:00 +14°C° 0.6 mm 2 mps 733 mmHg 83%
    11:00 +13°C° 0.6 mm 2 mps 733 mmHg 87%
    12:00 +13°C° 0.6 mm 2 mps 733 mmHg 91%
    13:00 +13°C° 0.4 mm 2 mps 734 mmHg 88%
    14:00 +13°C° 0.4 mm 2 mps 734 mmHg 85%
    15:00 +13°C° 0.4 mm 2 mps 735 mmHg 83%
    16:00 +14°C° 0.1 mm 2 mps 736 mmHg 76%
    17:00 +14°C° 0.1 mm 2 mps 736 mmHg 70%
    18:00 +14°C° 0.1 mm 3 mps 737 mmHg 63%
    19:00 +12°C° 0 mm 3 mps 737 mmHg 64%
    20:00 +12°C° 0 mm 2 mps 738 mmHg 65%
    21:00 +10°C° 0 mm 2 mps 738 mmHg 65%
    22:00 +8°C° 0 mm 2 mps 739 mmHg 66%
    23:00 +7°C° 0 mm 3 mps 739 mmHg 67%

    29 May, Friday

    Time Temperature Precipitation Wind Pressure Humidity
    00:00 +4°C° 0 mm 3 mps 740 mmHg 67%
    01:00 +4°C° 0 mm 3 mps 740 mmHg 68%
    02:00 +3°C° 0 mm 3 mps 740 mmHg 68%
    03:00 +3°C° 0 mm 3 mps 741 mmHg 68%
    04:00 +3°C° 0 mm 3 mps 741 mmHg 64%
    05:00 +4°C° 0 mm 4 mps 742 mmHg 59%
    06:00 +5°C° 0 mm 5 mps 742 mmHg 55%
    07:00 +6°C° 0 mm 5 mps 743 mmHg 50%
    08:00 +7°C° 0 mm 5 mps 743 mmHg 45%
    09:00 +8°C° 0 mm 5 mps 743 mmHg 39%
    10:00 +9°C° 0 mm 5 mps 743 mmHg 37%
    11:00 +10°C° 0 mm 6 mps 743 mmHg 35%
    12:00 +11°C° 0 mm 6 mps 743 mmHg 33%
    13:00 +12°C° 0 mm 5 mps 743 mmHg 32%
    14:00 +13°C° 0 mm 5 mps 743 mmHg 31%
    15:00 +13°C° 0 mm 5 mps 743 mmHg 31%
    16:00 +13°C° 0 mm 5 mps 744 mmHg 31%
    17:00 +13°C° 0 mm 5 mps 744 mmHg 31%
    18:00 +12°C° 0 mm 4 mps 744 mmHg 32%
    19:00 +11°C° 0 mm 4 mps 745 mmHg 38%
    20:00 +9°C° 0 mm 3 mps 745 mmHg 44%
    21:00 +8°C° 0 mm 2 mps 745 mmHg 49%
    22:00 +6°C° 0 mm 2 mps 746 mmHg 53%
    23:00 +5°C° 0 mm 2 mps 746 mmHg 56%

    30 May, Saturday

    Time Temperature Precipitation Wind Pressure Humidity
    00:00 +4°C° 0 mm 2 mps 746 mmHg 59%
    01:00 +4°C° 0 mm 2 mps 746 mmHg 62%
    02:00 +3°C° 0 mm 2 mps 746 mmHg 64%
    03:00 +3°C° 0 mm 2 mps 747 mmHg 67%
    04:00 +4°C° 0 mm 2 mps 747 mmHg 63%
    05:00 +5°C° 0 mm 2 mps 747 mmHg 60%
    06:00 +7°C° 0 mm 2 mps 747 mmHg 56%
    07:00 +8°C° 0 mm 2 mps 747 mmHg 49%
    08:00 +10°C° 0 mm 2 mps 747 mmHg 42%
    09:00 +12°C° 0 mm 3 mps 747 mmHg 35%
    10:00 +13°C° 0 mm 3 mps 747 mmHg 34%
    11:00 +14°C° 0 mm 3 mps 746 mmHg 33%
    12:00 +16°C° 0 mm 3 mps 746 mmHg 31%
    13:00 +16°C° 0 mm 3 mps 746 mmHg 32%
    14:00 +16°C° 0 mm 3 mps 746 mmHg 32%
    15:00 +17°C° 0 mm 2 mps 746 mmHg 33%
    16:00 +16°C° 0 mm 2 mps 746 mmHg 34%
    17:00 +16°C° 0 mm 2 mps 746 mmHg 35%
    18:00 +16°C° 0 mm 2 mps 746 mmHg 36%
    19:00 +14°C° 0 mm 1 mps 746 mmHg 43%
    20:00 +12°C° 0 mm 1 mps 746 mmHg 50%
    21:00 +10°C° 0 mm 0 mps 746 mmHg 57%
    22:00 +9°C° 0 mm 1 mps 746 mmHg 60%
    23:00 +8°C° 0 mm 1 mps 746 mmHg 62%
    Show more